FENGYUN 1C DEB, 35173

Orbit data source: Space-Track

FENGYUN 1C DEB, 35173 is space debris in SSO originally from a launch on Mon, 10 May 1999 UTC launched from the Taiyaun Space Center, China (TSC). Fengyun 1C debris stems from the Chinese weather satellite Fengyun-1C, which was intentionally destroyed by a Chinese anti-satellite missile in 2007. This event dramatically increased the amount of space debris, with thousands of trackable fragments posing hazards to satellites and human spaceflight. The Fengyun 1C debris cloud has become a focal point in discussions about space sustainability and the need for international regulations to prevent the creation of new debris.

Loading next visibility...
Identifier
35173, 1999-025DND
Orbit
SSO
Country
Flag of CNCN / PRC
Related business
Manufacturer
Unknown
Mission
Spacecraft
Bus & Motor
Unknown
Mass
Unknown
Launch date (UTC)
1999-05-10 (27 years ago)
Launch vehicle
Unknown
Launch site
Taiyaun Space Center, China (TSC)
Object type
Payload
Rocket body
Debris
Shape & HBR
Unknown shape, 0.1 m
Radar Cross Section
Small (<0.1 m²)

Expand to show TLE details & history
Last TLE update: 2 days ago

TLE from 2 days ago
0 FENGYUN 1C DEB
1 35173U 99025DND 26254.40258687  .00000852  00000-0  85430-3 0  9991
2 35173  99.7719 321.4830 0486135 269.0630  85.4790 13.38185926694757
Epoch: 2026-09-11T09:39Z
TLE epoch observation values (Epoch: 2026-09-11T09:39:43.505Z)
Latitude
0.00005°
Longitude
-173.87473°
Altitude
1,107.773 km
Speed
7.304 km/s
True Right ascension
21h 25m 55s
True Declination
0° 00' 00"
Sunlit
Object was in full shadow at epoch
Visualization orbit readout
Latitude
Unknown
Longitude
Unknown
Altitude
Unknown
Speed
Unknown
Apparent Right ascension
Unknown
Apparent Declination
Unknown
Sunlit
N/A
Visualization observer readout
Local Sidereal Time
01:48:42
Azimuth
Unknown
Elevation
Unknown
Doppler factor
Unknown
Orbital elements
Apogee altitude
1,477.543 km
Perigee altitude
749.168 km
Semi-major axis
7,491.493 km
Eccentricity
0.04861
Inclination
99.7719°
RAAN
321.483°
Arg. of periapsis
269.063°
True anomaly
91.05029°
Mean anomaly
85.479°
Eccentric anomaly
88.26307°
Mean motion
3.34727 °/min
Orbital period
107.55 mins
BSTAR
0.0008543
Loading maneuver chart data...
Computing Atmospheric mass density...

Documentation

Showing up to 5 results
|